"Pseudo-MPEC" for P10NHow

Created 2019 May 21 8:07:15 UT using Find_Orb

Click here for an explanation of pseudo-MPECs

 
 Astrometry: 
     P10NHow  C2019 05 08'ukoAstrometry%t$Zx/Zl!h=;==@47!*?FB)utdJfZ*:8d9Hy+#F51
     P10NHow  C2019 05 08A)G=74V8rO_oX4iv^U0BJredacted;IacK:HN[%1(B14y0LK_e@qF51
     P10NHow  C2019 05 08ydn8clicks$4C'u`R5cZphkR0V-x/=K[#jUtD?h\mmJ6tFQ'5:;`F51
     P10NHow  C2019 05 08(a8l=ykM=pb@:=n^7]t**EtXkK9ZeU@G3n32here9`O/HII@bWU\F51
     P10NHow KC2019 05 11a_'[qLfora1-@'N\:Bo'50VxXZGxxc/SFpl',cTmN;snB!*7w20NH21
     P10NHow KC2019 05 110B.2u`u*9AU_Ia#W.QL[H]*_Z*Wmn`#kni@UeJH`Ybcte@(lp;!!H21
     P10NHow KC2019 05 11T5_f(.L`ytO?)nC,U#nQY9ZO+explanationxFS!/h`OKn!1GO:fH21

Station data:
(F51) Pan-STARRS 1, Haleakala  (N20.707235 W156.255910)  US/Hawaii.
   Observers N. Primak, A. Schultz, S. Watters, J. Thiel, T. Goggia. Measurer
   PS1 Science Consortium. 1.8-m Ritchey-Chrétien + CCD.
(H21) Astronomical Research Observatory, Westfield  (N39.483057 W87.968270)
   US/Illinois. 0.76-m f/3.0 astrograph + CCD.

Orbital elements:  P10NHow
   Perihelion 2018 Oct 2.634500 +/- 267 TT = 15:13:40 (JD 2458394.134500)
Epoch 2019 May 11.0 TT = JDT 2458614.5   Earth MOID: 0.6788   Ma: 0.0049
M  90.30298215 +/- 90               (J2000 ecliptic)          AutoNEOCP
n   0.40978729 +/- 0.149            Peri.  344.87696 +/- 52
a   1.79513475 +/- 0.437            Node   149.26528 +/- 29
e   0.0732313 +/- 0.222             Incl.   19.50766 +/- 7
P   2.41/878.49d           H 20.3   G  0.15   U 11.5  SR
q 1.66367469 +/- 0.25    Q 1.92659482 +/- 2.75
From 7 observations 2019 May 8-11; mean residual 0".18
Residuals in arcseconds: 
190508 F51  .24-  .17+    190508 F51  .22+  .26-    190511 H21  .28-  .24+    
190508 F51  .02-  .03-    190511 H21  .12+  .03-    
190508 F51  .05+  .11+    190511 H21  .16+  .20-    

Ephemerides (geocentric):
Date (UTC) HH   RA              Dec         delta   r     elong  mag " sig PA
---- -- -- --  -------------   -----------  ------ ------ -----  --- ---- ---
2019 05 21 08  16 01 49.853   +21 05 39.09  .92722 1.8150 138.7 22.5  912 157
2019 05 21 09  16 01 47.032   +21 05 41.91  .92729 1.8150 138.7 22.5  919 157
2019 05 21 10  16 01 44.211   +21 05 44.66  .92736 1.8151 138.7 22.5  927 157
2019 05 21 11  16 01 41.391   +21 05 47.35  .92743 1.8151 138.7 22.5  934 157
2019 05 21 12  16 01 38.570   +21 05 49.97  .92750 1.8151 138.7 22.5  941 157
2019 05 21 13  16 01 35.749   +21 05 52.53  .92757 1.8152 138.7 22.5  948 157
2019 05 21 14  16 01 32.929   +21 05 55.03  .92765 1.8152 138.7 22.5  955 157
2019 05 21 15  16 01 30.108   +21 05 57.46  .92772 1.8152 138.7 22.5  963 157
2019 05 21 16  16 01 27.288   +21 05 59.83  .92779 1.8153 138.7 22.5  970 157
2019 05 21 17  16 01 24.467   +21 06 02.14  .92786 1.8153 138.7 22.5  977 157
2019 05 21 18  16 01 21.647   +21 06 04.38  .92793 1.8154 138.7 22.5  985 157
2019 05 21 19  16 01 18.827   +21 06 06.56  .92800 1.8154 138.6 22.5  992 157
2019 05 21 20  16 01 16.008   +21 06 08.67  .92808 1.8154 138.6 22.5 1000 157
2019 05 21 21  16 01 13.188   +21 06 10.72  .92815 1.8155 138.6 22.5 1007 157
2019 05 21 22  16 01 10.368   +21 06 12.71  .92822 1.8155 138.6 22.5 1014 157
2019 05 21 23  16 01 07.549   +21 06 14.64  .92829 1.8156 138.6 22.5 1022 157
2019 05 22 00  16 01 04.730   +21 06 16.50  .92837 1.8156 138.6 22.5 1030 157
2019 05 22 01  16 01 01.911   +21 06 18.29  .92844 1.8156 138.6 22.5 1037 157
2019 05 22 02  16 00 59.092   +21 06 20.03  .92852 1.8157 138.6 22.5 1045 157
2019 05 22 03  16 00 56.273   +21 06 21.70  .92859 1.8157 138.6 22.5 1052 157
2019 05 22 04  16 00 53.455   +21 06 23.30  .92866 1.8157 138.6 22.5 1060 157
2019 05 22 05  16 00 50.637   +21 06 24.85  .92874 1.8158 138.6 22.5 1068 157
2019 05 22 06  16 00 47.819   +21 06 26.32  .92881 1.8158 138.6 22.5 1075 157
2019 05 22 07  16 00 45.001   +21 06 27.74  .92889 1.8159 138.6 22.5 1083 157
2019 05 22 08  16 00 42.183   +21 06 29.09  .92896 1.8159 138.6 22.5 1091 157
2019 05 22 09  16 00 39.366   +21 06 30.38  .92904 1.8159 138.6 22.5 1099 157
2019 05 22 10  16 00 36.549   +21 06 31.60  .92912 1.8160 138.6 22.5 1107 157
2019 05 22 11  16 00 33.732   +21 06 32.76  .92919 1.8160 138.5 22.5 1115 157
2019 05 22 12  16 00 30.916   +21 06 33.86  .92927 1.8161 138.5 22.5 1122 157
2019 05 22 13  16 00 28.099   +21 06 34.89  .92935 1.8161 138.5 22.5 1130 157
2019 05 22 14  16 00 25.283   +21 06 35.86  .92942 1.8161 138.5 22.5 1138 157
2019 05 22 15  16 00 22.468   +21 06 36.77  .92950 1.8162 138.5 22.5 1146 157
2019 05 22 16  16 00 19.652   +21 06 37.61  .92958 1.8162 138.5 22.5 1154 157
2019 05 22 17  16 00 16.837   +21 06 38.39  .92966 1.8162 138.5 22.5 1162 157
2019 05 22 18  16 00 14.022   +21 06 39.11  .92973 1.8163 138.5 22.5 1171 157
2019 05 22 19  16 00 11.208   +21 06 39.76  .92981 1.8163 138.5 22.5 1179 157
2019 05 22 20  16 00 08.394   +21 06 40.35  .92989 1.8164 138.5 22.5 1187 157
2019 05 22 21  16 00 05.580   +21 06 40.87  .92997 1.8164 138.5 22.5 1195 157
2019 05 22 22  16 00 02.767   +21 06 41.33  .93005 1.8164 138.5 22.5 1203 157
2019 05 22 23  15 59 59.954   +21 06 41.73  .93013 1.8165 138.5 22.5 1211 157
2019 05 23 00  15 59 57.141   +21 06 42.06  .93021 1.8165 138.5 22.5 1220 157
2019 05 23 01  15 59 54.328   +21 06 42.33  .93029 1.8165 138.4 22.5 1228 157
2019 05 23 02  15 59 51.516   +21 06 42.54  .93037 1.8166 138.4 22.5 1236 156
2019 05 23 03  15 59 48.705   +21 06 42.68  .93045 1.8166 138.4 22.5 1245 156
2019 05 23 04  15 59 45.894   +21 06 42.76  .93053 1.8167 138.4 22.5 1253 156
2019 05 23 05  15 59 43.083   +21 06 42.78  .93061 1.8167 138.4 22.5 1262 156
2019 05 23 06  15 59 40.272   +21 06 42.73  .93069 1.8167 138.4 22.5 1270 156
2019 05 23 07  15 59 37.462   +21 06 42.62  .93078 1.8168 138.4 22.5 1279 156